1913 visiteurs
Prévisions de votre ville :
Vigilance : 34 départements le 19/01/21 à 06:00 - Voir la carte - Être alerté(e)

Paris Roissy CDG (95380) le 19/01/21 à 07:17 Choisir station

5°C 87 % SSO Vit. moyenne 26 km/h

Relevés météo quotidiens pour la station de :

UTC
S: Synop
M: Metar
Loc T°C
(°C)
Td
(°C)
HR
(%)
Vis
(km)
Néb
(octa)
Vent
(km/h)
Pression
(mb)
Précipitations
(mm)
Temps
              MOY
10 min
DIR RAF 1h MESURE VAR SUR 3h    
S 00 h 01h 12.3 3.2 54 - 20 54 1016.6 -1.2/3h 0.0/6h - 0.0/3h -
S 01 h 02h 12.1 3.6 56 - 20 41 1015.9 -1.6/3h 0.0/1h -
S 02 h 03h 13.3 2.5 48 - 7 79 1014.7 -2.5/3h 0.0/1h -
S 03 h 04h 13.5 5.1 57 20 0/8 26 90 1012.6 -3.9/3h 0.0/3h
S 04 h 05h 13.7 4.8 55 - 52 98 1012.0 -3.7/3h 0.0/1h -
S 05 h 06h 13.0 6.8 66 - 61 94 1012.1 -2.6/3h 0.0/1h -
S 06 h 07h 13.5 6.8 64 - 26 108 1012.0 -0.5/3h 0.0/12h - 0.0/3h - 0.0/24h -
S 07 h 08h 13.1 6.7 65 - 24 94 1011.9 -0.2/3h 0.0/1h -
S 08 h 09h 13.2 7.8 70 - 54 87 1012.3 +0.2/3h 0.0/1h -
S 09 h 10h 14.4 7.4 63 - 57 107 1012.0 0.0/3h 0.0/3h -
S 10 h 11h 14.8 7.8 63 - 30 101 1011.7 0.0/3h 0.0/1h -
S 11 h 12h 14.6 8.5 67 - 59 106 1011.5 -0.7/3h 0.0/1h -
S 12 h 13h 15.9 7.6 58 - 65 104 1010.9 -1.0/3h 0.0/6h - 0.0/3h -
S 13 h 14h 15.9 7.4 57 - 69 109 1010.3 -1.4/3h 0.0/1h -
S 14 h 15h 16.0 6.1 52 - 76 126 1009.3 -2.0/3h 0.0/1h -
S 15 h 16h 16.1 3.2 42 - 67 113 1010.4 -0.5/3h 0.0/3h -
S 16 h 17h 14.6 3.7 48 - 65 100 1010.5 +0.1/3h 0.0/1h -
S 17 h 18h 12.9 6.2 64 - 67 117 1011.1 +1.5/3h 0.0/1h -
S 18 h 19h 12.9 5.6 61 - 81 119 1011.6 +1.0/3h 0.0/12h - 0.0/3h -
S 19 h 20h 12.9 6.0 63 - 37 119 1012.0 +1.4/3h 0.0/1h -
S 20 h 21h 13.4 4.5 55 - 74 117 1011.7 +0.7/3h 0.0/1h -
S 21 h 22h 13.2 5.1 58 - 69 119 1012.7 +1.1/3h 0.0/3h -
S 22 h 23h 13.0 5.6 61 - 72 122 1012.3 +0.3/3h 0.0/1h -
S 23 h 00h 12.8 5.7 62 - 41 119 1011.9 +0.1/3h 0.0/1h -
evolution des temperatures
cumul des precipitations
vent moyen et rafales
pression atmospherique

Un tiret (-) signifie que les données ne sont pas disponibles.

Passez la souris sur les pictos temps pour avoir plus de précisions. Passez les flèches sur l'icône de la direction du vent pour voir la direction précise en degrés.

Les données de l'heure en cours sont disponibles à partir de H+15 minutes.


S signifie station Synop, plus complète qu'une station Metar (M). Il y a +1h de différence entre l'heure UTC et l'heure légale en hiver et +2h en été.

Td est la mesure du point de rosée.

HR est l'humidité relative/p>

Vis est la visibilité

Néb est la nébulosité du ciel (couverture nuageuse) exprimée en octas (de 0/8 à 8/8).

Vent moy 10 min donne le vent moyen sur les 10 minutes qui précèdent le relevé.

Vent raf 1h donne la rafale maximale mesurée dans l'heure qui précède le relevé.


Les données les plus anciennes remontent à avril 2014.

Les données présentées sur cette page proviennent des stations météo officielles. Les relevés sont effectués aux normes en vigueur (anémomètre à 10m de haut, thermomètre sous abri normalisé à 2m du sol...)

Météo 60 décline toute responsabilité en cas d'absence de données, d'erreurs, de mauvaise utilisation ou interprétation et n'est pas habilité à fournir des certificats intempéries.